Waarnemingen

Advertentie
Mijn weer
Charleville, Frankrijk (7075): temperatuur & dauwpunt: 15.03.2019 13:00:00 - 21.03.2019 13:00:00 (CET)Charleville, Frankrijk (7075): temperatuur 5cm: 15.03.2019 13:00:00 - 21.03.2019 13:00:00 (CET)Charleville, Frankrijk (7075): temperatuur -20cm & temperatuur -100cm: 15.03.2019 13:00:00 - 21.03.2019 13:00:00 (CET)Charleville, Frankrijk (7075): windsnelheid & windstoten: 15.03.2019 13:00:00 - 21.03.2019 13:00:00 (CET)Charleville, Frankrijk (7075): windrichting: 15.03.2019 13:00:00 - 21.03.2019 13:00:00 (CET)Charleville, Frankrijk (7075): luchtdruk: 15.03.2019 13:00:00 - 21.03.2019 13:00:00 (CET)Charleville, Frankrijk (7075): zicht: 15.03.2019 13:00:00 - 21.03.2019 13:00:00 (CET)Charleville, Frankrijk (7075): Zonneschijnduur: 15.03.2019 13:00:00 - 21.03.2019 13:00:00 (CET)Charleville, Frankrijk (7075): neerslag: 15.03.2019 13:00:00 - 21.03.2019 13:00:00 (CET)
Datum & Tijd tt [°C] td [°C] tt 5cm [°C] tt -20cm [°C] tt -100cm [°C] ff [km/u] ff [kn] fx [km/u] fx [kn] dd ppp [hPa] vv [km] sd [min] rr [mm]
21.03.2019 13:00:00 15,3 2,1 22,2 7,8 8,0 5 3 12 7 WZW 1033,7 20 60 0,0
21.03.2019 12:00:00 14,3 1,5 19,6 7,8 8,0 6 3 16 9 Z 1034,1 19 60 0,0
21.03.2019 11:00:00 12,2 2,3 16,5 7,8 8,0 7 4 13 7 ZZO 1034,8 18 60 0,0
21.03.2019 10:00:00 9,6 5,2 12,1 7,9 8,0 3 1 6 4 O 1035,2 20 60 0,0
21.03.2019 09:00:00 4,6 4,0 3,5 8,0 8,0 3 2 6 3 NW 1035,7 18 60 0,0
21.03.2019 08:00:00 1,4 1,0 -2,5 8,1 8,0 1 1 3 2 WNW 1036,0 11 51 0,0
21.03.2019 07:00:00 -0,5 -0,9 -3,2 8,2 8,0 1 1 3 2 ONO 1035,9 1,0 0 0,0
21.03.2019 06:00:00 -0,3 -0,7 -3,1 8,3 8,0 1 0 3 1 OZO 1035,5 1,1 0 0,0
21.03.2019 05:00:00 -0,1 -0,7 -2,6 8,4 8,0 1 1 5 3 O 1035,4 0,3 0 0,0
21.03.2019 04:00:00 0,9 0,5 -2,1 8,5 8,0 1 1 3 2 W 1035,2 8 0 0,0
21.03.2019 03:00:00 0,9 0,2 -1,6 8,6 8,1 0 0 5 3 ZZW 1035,4 1,9 0 0,0
21.03.2019 02:00:00 1,7 1,0 -1,0 8,7 8,0 4 2 6 3 W 1035,6 9 0 0,0
21.03.2019 01:00:00 1,6 0,7 -1,0 8,8 8,0 2 1 5 3 WZW 1035,8 8 0 0,0
21.03.2019 00:00:00 2,7 1,8 -0,4 8,8 8,0 2 1 5 3 WNW 1035,7 4,2 0 0,0
20.03.2019 23:00:00 4,0 3,1 0,4 8,8 8,0 1 1 6 3 ZO 1035,8 13 0 0,0
20.03.2019 22:00:00 4,9 3,2 2,0 8,9 8,0 5 3 7 4 NW 1035,5 20 0 0,0
20.03.2019 21:00:00 5,2 3,4 2,9 8,9 8,0 2 1 9 5 NNW 1035,1 20 0 0,0
20.03.2019 20:00:00 7,0 4,0 3,3 8,8 8,0 1 1 4 2 ZZW 1034,9 20 0 0,0
20.03.2019 19:00:00 10,6 4,3 7,5 8,7 8,0 5 3 10 5 W 1034,3 20 30 0,0
20.03.2019 18:00:00 12,9 4,1 12,7 8,6 8,0 8 5 13 7 WNW 1033,9 20 57 0,0
20.03.2019 17:00:00 14,4 4,7 14,8 8,5 8,0 4 2 16 9 W 1033,8 20 49 0,0
20.03.2019 16:00:00 12,3 3,5 14,0 8,3 8,0 10 5 19 11 W 1034,2 20 0 0,0
20.03.2019 15:00:00 12,4 4,1 14,1 8,1 8,0 9 5 16 9 W 1034,4 20 0 0,0
20.03.2019 14:00:00 12,9 4,1 17,5 7,9 8,0 5 3 15 8 WNW 1034,3 20 13 0,0
20.03.2019 13:00:00 13,0 4,7 17,1 7,8 8,0 4 2 16 9 Z 1034,7 20 46 0,0
20.03.2019 12:00:00 12,2 5,8 17,9 7,7 8,0 4 2 10 5 N 1034,9 20 60 0,0
20.03.2019 11:00:00 11,8 4,7 15,0 7,8 8,0 3 2 10 5 ZO 1035,1 20 60 0,0
20.03.2019 10:00:00 9,3 4,3 13,2 7,8 8,0 3 1 10 5 O 1035,4 20 60 0,0
20.03.2019 09:00:00 6,8 5,3 4,5 7,8 8,0 2 1 5 3 WNW 1035,1 18 60 0,0
20.03.2019 08:00:00 2,9 2,2 1,4 7,9 8,0 1 1 4 2 Z 1034,8 4,0 1 0,0
20.03.2019 07:00:00 2,7 1,8 0,5 7,9 8,0 2 1 5 3 ZZO 1034,2 6 0 0,0
20.03.2019 06:00:00 3,9 3,2 3,5 8,0 8,0 1 0 3 2 NNW 1033,7 15 0 0,0
20.03.2019 05:00:00 3,9 3,2 3,6 8,0 8,0 2 1 4 2 W 1033,4 13 0 0,0
20.03.2019 04:00:00 4,1 3,4 3,2 8,1 8,0 3 2 5 3 W 1033,5 14 0 0,0
20.03.2019 03:00:00 3,7 3,0 1,0 8,1 8,0 1 1 6 3 NW 1033,3 15 0 0,0
20.03.2019 02:00:00 4,4 3,2 0,9 8,1 8,0 2 1 4 2 WNW 1033,3 17 0 0,0
20.03.2019 01:00:00 5,7 4,3 4,9 8,2 8,0 2 1 5 3 ZZO 1032,9 18 0 0,0
20.03.2019 00:00:00 5,6 4,1 4,7 8,2 8,0 2 1 4 2 N 1032,8 20 0 0,0
19.03.2019 23:00:00 6,1 4,3 5,1 8,2 8,0 2 1 4 2 ZZW 1032,6 20 0 0,0
19.03.2019 22:00:00 6,5 4,3 5,5 8,2 8,0 1 1 4 2 Z 1032,1 20 0 0,0
19.03.2019 21:00:00 7,0 4,1 6,0 8,2 8,0 1 0 4 2 N 1031,4 20 0 0,0
19.03.2019 20:00:00 8,2 3,4 6,9 8,1 7,9 3 2 6 3 WNW 1031,0 20 0 0,0
19.03.2019 19:00:00 9,0 3,2 8,0 8,0 8,0 5 3 8 4 WNW 1030,5 20 0 0,0
19.03.2019 18:00:00 9,7 2,3 9,4 7,8 8,0 6 3 18 10 WNW 1030,0 20 0 0,0
19.03.2019 17:00:00 10,3 2,4 10,5 7,6 8,0 9 5 22 12 NW 1029,4 20 15 0,0
19.03.2019 16:00:00 11,5 -0,3 16,3 7,4 8,0 9 5 24 13 WZW 1029,1 20 60 0,0
19.03.2019 15:00:00 11,0 2,0 14,7 7,2 8,0 18 10 27 14 WNW 1029,4 20 53 0,0
19.03.2019 14:00:00 10,4 0,7 15,1 7,1 8,0 10 5 22 12 W 1029,6 20 56 0,0
19.03.2019 13:00:00 10,1 2,7 14,8 7,0 8,0 5 3 11 6 Z 1029,9 20 60 0,0
19.03.2019 12:00:00 6,9 3,9 11,3 6,9 8,0 4 2 10 5 ONO 1030,1 20 60 0,0
19.03.2019 11:00:00 3,3 3,0 3,7 6,9 7,9 3 2 8 4 ZZO 1030,4 6 28 0,0
19.03.2019 10:00:00 -0,1 -0,4 0,2 7,0 8,0 3 2 7 4 OZO 1030,1 0,2 0 0,0
19.03.2019 09:00:00 -1,5 -1,8 -1,0 7,1 8,0 3 1 7 4 Z 1029,9 0,2 0 0,0
19.03.2019 08:00:00 -2,0 -2,4 -1,5 7,1 7,9 3 2 6 4 NW 1029,6 0,2 0 0,0
19.03.2019 07:00:00 -1,9 -2,2 -1,7 7,2 8,0 3 1 6 3 W 1028,9 0,1 0 0,0
19.03.2019 06:00:00 -2,3 -2,7 -1,8 7,3 8,0 3 2 6 3 ZW 1028,6 0,2 0 0,0
19.03.2019 05:00:00 -2,0 -2,3 -1,6 7,4 8,0 3 2 6 3 WZW 1028,3 0,2 0 0,0
19.03.2019 04:00:00 -1,7 -2,0 -1,2 7,4 7,9 3 2 8 4 NW 1027,4 0,1 0 0,0
19.03.2019 03:00:00 -1,4 -1,7 -1,0 7,5 7,9 3 1 5 3 NW 1027,0 0,1 0 0,0
19.03.2019 02:00:00 -0,9 -1,3 -1,0 7,6 7,9 3 2 5 3 NNW 1027,0 0,1 0 0,0
19.03.2019 01:00:00 -1,0 -1,4 -1,1 7,7 7,9 2 1 5 3 NW 1026,7 0,2 0 0,0
19.03.2019 00:00:00 -0,5 -0,9 -1,4 7,7 7,9 3 2 5 3 WZW 1026,5 0,1 0 0,0
18.03.2019 23:00:00 0,4 0,0 -1,2 7,8 7,9 3 1 9 5 W 1026,1 0,2 0 0,0
18.03.2019 22:00:00 0,9 0,3 -1,1 7,8 7,9 5 3 6 4 NW 1025,5 0,1 0 0,0
18.03.2019 21:00:00 2,5 1,6 -0,3 7,9 7,9 3 1 5 3 WNW 1024,7 0,5 0 0,0
18.03.2019 20:00:00 4,1 2,8 3,4 7,8 7,9 1 1 15 8 ONO 1024,2 20 0 1,4
18.03.2019 19:00:00 4,1 2,9 1,3 7,8 7,9 4 2 6 3 ZZW 1023,5 20 0 0,0
18.03.2019 18:00:00 5,8 3,0 4,0 7,8 7,9 1 1 9 5 O 1022,6 20 33 0,0
18.03.2019 17:00:00 4,9 2,9 4,3 7,7 7,9 3 2 46 25 ZZW 1022,2 17 6 1,2
18.03.2019 16:00:00 8,5 2,3 7,1 7,6 7,9 5 3 24 13 NW 1021,5 20 43 0,0
18.03.2019 15:00:00 6,1 2,5 7,1 7,5 7,9 25 14 43 23 W 1021,8 20 3 0,0
18.03.2019 14:00:00 9,3 2,2 11,9 7,4 7,9 11 6 23 12 W 1021,1 20 18 0,0
18.03.2019 13:00:00 8,7 2,0 10,6 7,3 7,9 16 9 25 14 WNW 1021,4 20 24 0,0
18.03.2019 12:00:00 7,9 2,1 10,1 7,3 7,9 13 7 24 13 W 1021,3 20 29 0,0
18.03.2019 11:00:00 7,1 4,1 8,4 7,3 7,9 15 8 25 14 W 1021,1 20 11 0,0
18.03.2019 10:00:00 6,1 3,1 5,4 7,3 7,9 15 8 25 14 W 1020,7 20 25 0,0
18.03.2019 09:00:00 4,6 3,3 4,6 7,3 7,9 9 5 14 8 WNW 1019,9 19 0 0,2
18.03.2019 08:00:00 3,5 2,6 2,9 7,4 7,9 1 1 7 4 NO 1019,2 19 0 0,0
18.03.2019 07:00:00 2,8 1,9 2,4 7,5 7,9 6 4 14 7 NW 1018,5 19 0 0,0
18.03.2019 06:00:00 2,3 1,3 2,1 7,5 7,9 3 2 13 7 NNW 1017,9 20 0 0,0
18.03.2019 05:00:00 2,0 1,3 1,0 7,6 7,9 5 3 13 7 W 1017,3 12 0 0,0
18.03.2019 04:00:00 1,1 0,4 -0,2 7,7 7,9 2 1 8 4 NW 1017,0 20 0 0,0
18.03.2019 03:00:00 1,1 0,2 -1,1 7,8 7,9 4 2 13 7 O 1016,9 20 0 0,0
18.03.2019 02:00:00 1,4 0,4 0,2 7,9 7,9 8 5 21 11 W 1016,5 20 0 0,0
18.03.2019 01:00:00 2,0 0,7 0,8 8,0 7,9 4 2 42 23 W 1015,8 20 0 0,2
18.03.2019 00:00:00 3,7 1,2 1,8 8,1 7,9 19 10 39 21 WZW 1015,5 15 0 0,2
17.03.2019 23:00:00 3,7 0,4 2,1 8,1 7,9 8 4 24 13 ZW 1015,0 20 0 0,0
17.03.2019 22:00:00 4,3 0,4 3,1 8,2 7,9 10 5 26 14 ZW 1014,5 20 0 0,0
17.03.2019 21:00:00 5,0 0,0 3,7 8,2 7,9 12 7 28 15 WZW 1014,0 20 0 0,0
17.03.2019 20:00:00 5,5 0,1 3,9 8,3 7,8 15 8 32 17 WZW 1013,0 20 0 0,0
17.03.2019 19:00:00 6,1 0,4 4,6 8,3 7,8 17 9 38 21 WZW 1012,1 20 25 0,0
17.03.2019 18:00:00 6,4 2,3 3,6 8,2 7,8 7 4 46 25 W 1011,0 20 17 0,8
17.03.2019 17:00:00 7,4 1,7 7,7 8,2 7,9 22 12 42 23 W 1010,4 20 28 0,0
17.03.2019 16:00:00 8,0 1,2 8,3 8,2 7,8 23 12 42 23 W 1009,5 20 23 0,0
17.03.2019 15:00:00 7,3 0,9 8,7 8,1 7,8 26 14 63 34 W 1009,1 20 15 0,0
17.03.2019 14:00:00 8,6 0,1 9,3 8,1 7,8 34 19 57 31 W 1008,0 20 36 0,0
17.03.2019 13:00:00 6,1 2,0 6,4 8,0 7,8 17 9 79 42 NW 1008,0 20 25 0,0
17.03.2019 12:00:00 9,0 4,0 8,7 8,1 7,9 25 14 49 26 W 1006,8 20 19 0,0
17.03.2019 11:00:00 8,1 4,9 7,2 8,1 7,8 19 10 36 19 W 1006,3 20 12 0,2
17.03.2019 10:00:00 6,7 4,2 5,6 8,1 7,8 19 11 34 18 W 1005,9 19 0 0,0
17.03.2019 09:00:00 6,2 3,4 5,3 8,2 7,8 11 6 37 20 WZW 1005,0 20 0 0,2
17.03.2019 08:00:00 6,2 3,9 5,4 8,2 7,8 26 14 42 23 W 1004,4 20 0 3,7
17.03.2019 07:00:00 7,1 5,9 6,5 8,2 7,8 13 7 39 21 ZW 1003,2 6 0 2,8
17.03.2019 06:00:00 7,1 5,2 6,5 8,3 7,8 19 10 45 24 ZZW 1002,9 3,6 0 0,2
17.03.2019 05:00:00 8,3 3,9 7,5 8,3 7,8 22 12 54 29 ZZW 1002,8 20 0 0,0
17.03.2019 04:00:00 8,2 4,2 7,6 8,4 7,8 16 9 48 26 ZZW 1003,2 20 0 0,0
17.03.2019 03:00:00 8,4 4,0 7,7 8,4 7,8 19 10 48 26 ZW 1003,9 20 0 0,0
17.03.2019 02:00:00 9,2 4,6 8,3 8,4 7,8 22 12 47 25 ZW 1004,4 20 0 0,0
17.03.2019 01:00:00 9,7 5,1 9,1 8,4 7,8 19 10 44 24 ZW 1004,9 20 0 0,0
17.03.2019 00:00:00 9,9 5,7 9,0 8,4 7,8 14 8 31 17 ZZW 1005,9 20 0 0,0
16.03.2019 23:00:00 9,4 5,6 8,9 8,4 7,8 13 7 29 16 ZZW 1006,3 20 0 0,0
16.03.2019 22:00:00 9,2 5,9 8,0 8,5 7,8 13 7 31 17 Z 1007,0 20 0 0,0
16.03.2019 21:00:00 9,7 5,9 8,8 8,5 7,8 19 10 35 19 Z 1007,2 20 0 0,0
16.03.2019 20:00:00 9,8 5,8 8,8 8,4 7,8 16 9 34 19 Z 1007,8 20 0 0,0
16.03.2019 19:00:00 10,3 5,7 9,3 8,4 7,8 15 8 34 18 Z 1008,0 20 20 0,0
16.03.2019 18:00:00 11,9 6,0 11,9 8,4 7,8 13 7 40 21 ZZW 1008,5 20 42 0,0
16.03.2019 17:00:00 11,5 5,6 12,0 8,3 7,8 19 10 57 31 ZZW 1009,5 20 19 0,0
16.03.2019 16:00:00 11,5 6,0 11,7 8,3 7,8 17 9 46 25 ZZW 1010,4 20 5 0,0
16.03.2019 15:00:00 10,7 5,9 10,6 8,2 7,8 15 8 41 22 ZW 1011,5 20 0 0,0
16.03.2019 14:00:00 10,2 5,6 10,5 8,2 7,8 16 9 40 21 ZZW 1012,3 20 0 0,0
16.03.2019 13:00:00 10,1 5,7 10,7 8,2 7,8 18 10 42 23 ZW 1013,2 20 0 0,0
16.03.2019 12:00:00 10,0 5,6 10,4 8,1 7,8 26 14 49 27 ZW 1013,5 20 0 0,0
16.03.2019 11:00:00 9,9 6,2 9,9 8,1 7,8 18 10 44 24 ZW 1014,0 20 0 0,0
16.03.2019 10:00:00 10,1 6,4 9,5 8,1 7,8 20 11 48 26 ZW 1014,2 20 0 0,0
16.03.2019 09:00:00 9,8 6,9 9,5 8,1 7,8 26 14 54 29 ZW 1014,5 20 0 0,2
16.03.2019 08:00:00 9,7 7,1 9,5 8,1 7,8 20 11 40 21 WZW 1014,5 20 0 0,0
16.03.2019 07:00:00 10,1 7,3 9,2 8,1 7,8 20 11 39 21 WZW 1014,4 20 0 0,0
16.03.2019 06:00:00 9,9 8,0 9,2 8,1 7,8 16 9 43 23 WZW 1014,3 16 0 0,0
16.03.2019 05:00:00 9,7 8,1 9,2 8,1 7,8 16 9 44 24 WZW 1014,3 12 0 0,0
16.03.2019 04:00:00 10,1 7,9 9,2 8,1 7,8 18 10 45 24 W 1014,2 20 0 0,0
16.03.2019 03:00:00 9,9 8,0 9,2 8,0 7,8 23 12 57 31 W 1014,9 20 0 0,0
16.03.2019 02:00:00 9,9 8,5 9,4 8,0 7,8 21 12 47 25 WZW 1015,2 12 0 0,0
16.03.2019 01:00:00 10,2 8,8 9,6 8,0 7,8 22 12 51 27 WZW 1015,1 9 0 0,2
16.03.2019 00:00:00 10,4 8,8 9,7 8,0 7,8 23 12 47 26 W 1015,0 7 0 0,4
15.03.2019 23:00:00 10,5 8,9 9,9 7,9 7,8 22 12 58 31 WZW 1014,6 6 0 0,4
15.03.2019 22:00:00 10,8 9,1 10,1 7,9 7,8 25 13 53 29 W 1014,2 6 0 0,4
15.03.2019 21:00:00 10,8 9,4 10,3 7,8 7,8 22 12 48 26 W 1013,7 4,7 0 0,6
15.03.2019 20:00:00 10,9 9,5 10,3 7,8 7,8 26 14 54 29 W 1013,1 2,7 0 0,6
15.03.2019 19:00:00 11,2 9,5 10,5 7,7 7,8 29 16 60 32 W 1012,3 5 0 0,2
15.03.2019 18:00:00 11,3 9,6 10,7 7,6 7,8 27 14 53 29 W 1012,0 8 0 0,2
15.03.2019 17:00:00 11,4 9,6 11,1 7,6 7,8 27 15 58 31 W 1011,8 9 0 0,0
15.03.2019 16:00:00 11,5 9,7 11,5 7,5 7,8 28 15 51 27 W 1012,1 9 0 0,2
15.03.2019 15:00:00 11,3 9,6 11,6 7,4 7,8 24 13 59 32 W 1011,9 7 0 0,0
15.03.2019 14:00:00 11,3 9,6 11,1 7,4 7,8 25 14 50 27 W 1011,9 13 0 0,0
15.03.2019 13:00:00 10,9 9,5 10,1 7,3 7,8 22 12 54 29 W 1011,8 7 0 0,0

tt = temperatuur
td = dauwpunt
tt 5cm = temperatuur 5cm
tt -20cm = temperatuur -20cm
tt -100cm = temperatuur -100cm
ff = windsnelheid
fx = windstoten
dd = windrichting
ppp = luchtdruk
vv = zicht
sd = Zonneschijnduur
rr = neerslag

Weerstations in de omgeving